Theta_e
313 313 314 322 322 316 316 316 313 315 315 316 314 316 317 317 316 317 330 335 336 333 334 334 333 333 334 331 331 334 336 334 333 327 321 317 314 313 312 313 313 312 312 311 316 317 324 328 325
313 314 321 320 318 316 316 312 315 313 318 318 319 320 321 322 325 330 335 337 337 333 334 334 333 332 333 330 330 333 335 334 333 327 321 316 316 314 312 312 312 312 310 310 312 318 327 327 323
317 320 322 314 311 316 315 312 313 315 317 315 318 319 320 322 325 332 332 330 338 334 334 334 334 333 331 329 330 330 333 334 332 329 322 320 322 320 316 312 311 310 309 309 311 318 323 323 322
320 319 315 315 315 314 314 313 313 317 315 315 318 320 321 322 325 325 325 327 333 336 334 333 334 334 332 330 330 330 331 335 332 331 325 325 326 324 321 314 311 309 308 307 309 316 319 322 322
320 319 313 313 313 312 310 313 314 315 314 316 319 317 322 321 322 323 321 323 331 335 334 332 334 333 332 330 330 331 331 333 333 331 327 327 327 325 323 318 313 309 308 306 307 311 317 320 322
317 314 314 315 313 312 312 313 316 314 313 315 316 318 320 319 319 320 323 326 330 334 335 333 332 332 332 331 330 331 331 332 332 332 329 328 327 326 324 322 317 312 308 306 306 307 311 316 316
314 311 314 312 312 314 314 314 313 313 313 315 317 318 318 318 318 320 324 329 332 335 335 335 335 335 335 333 331 331 331 331 332 333 330 329 328 327 325 323 320 316 312 308 306 305 307 308 310
315 309 310 310 312 315 313 313 314 314 314 315 317 317 316 318 318 321 326 329 331 333 335 334 334 334 335 333 333 333 331 332 332 333 331 330 329 327 326 323 319 316 316 314 310 306 303 303 302
313 309 310 311 310 313 312 312 313 313 314 316 318 317 317 318 319 321 325 328 330 332 334 334 334 334 335 333 332 333 333 332 332 333 332 330 328 326 326 324 322 319 317 317 316 315 313 311 310
310 307 309 308 308 312 313 313 313 313 313 315 316 317 317 318 318 319 320 321 324 329 333 332 334 333 335 333 333 333 332 331 331 331 330 330 328 326 325 325 324 323 321 320 319 318 317 316 316
308 308 308 310 311 313 313 312 313 313 311 315 316 317 317 316 318 318 319 320 319 324 331 333 334 334 332 333 332 332 331 331 332 331 331 329 328 327 326 325 325 324 323 322 321 320 319 318 317
312 311 310 312 313 313 313 313 312 312 315 316 316 315 316 316 317 317 317 318 321 323 326 331 332 334 331 330 330 331 331 330 332 332 332 330 328 327 327 326 325 323 323 322 321 320 320 319 318
312 312 313 313 313 313 313 313 313 313 316 315 315 316 315 315 316 317 318 321 323 323 325 327 330 333 333 332 329 331 330 330 332 332 331 330 329 328 328 327 328 324 323 322 321 320 320 320 319
312 313 313 314 314 314 313 312 313 314 315 315 315 315 315 315 315 317 319 320 320 321 323 325 326 328 331 332 330 328 330 330 330 330 332 330 331 329 327 329 329 326 324 323 322 321 320 320 317
312 313 310 312 312 312 313 312 311 315 315 315 315 315 315 316 315 315 316 317 318 318 321 321 321 322 323 327 331 330 327 327 329 328 330 332 330 330 329 330 329 326 325 324 323 321 319 319 317
311 309 313 310 310 312 312 313 311 314 313 315 314 314 314 315 315 315 315 316 317 318 318 318 317 315 315 319 325 329 329 327 328 329 328 329 328 327 328 328 330 327 326 325 323 321 319 318 317
308 310 311 310 310 310 310 312 311 314 313 313 315 315 315 315 314 315 314 314 315 315 316 315 315 314 313 313 313 317 323 327 326 327 328 326 326 328 327 329 329 327 325 323 322 321 318 318 315
309 311 309 311 310 310 310 310 310 313 313 313 314 316 316 316 317 317 315 314 314 313 314 314 313 312 312 312 312 312 313 315 325 327 326 326 327 327 324 328 329 327 325 322 321 320 318 317 314
307 309 310 308 309 311 310 309 311 311 311 311 314 316 316 317 317 318 317 315 314 313 313 313 312 312 311 311 311 312 312 312 320 326 326 326 326 326 327 325 327 327 325 323 320 319 318 314 310
310 311 310 308 308 309 309 309 309 310 311 312 313 314 316 317 317 318 317 316 315 314 314 313 312 312 311 311 311 311 312 313 314 325 324 324 327 326 326 327 325 325 324 323 321 319 316 313 309
309 310 310 311 309 308 308 309 308 308 309 312 313 314 314 315 316 317 317 317 316 315 314 314 313 312 311 310 310 311 313 314 322 320 324 324 326 326 324 326 323 324 323 322 320 319 318 314 309
311 308 309 311 312 311 309 313 311 310 310 309 314 315 316 316 316 315 316 315 315 315 314 313 312 311 310 310 310 311 312 312 316 318 323 321 321 320 320 323 323 323 321 320 320 318 315 312 307
311 308 309 310 310 310 310 312 310 309 311 312 313 314 314 315 315 315 315 315 314 313 312 312 311 310 310 309 309 311 312 313 316 317 320 322 323 322 324 321 320 320 318 320 318 314 307 306 305
307 309 308 306 308 313 310 312 310 311 311 311 312 314 313 314 315 316 316 316 315 313 311 310 310 310 310 309 309 311 311 313 316 318 321 322 324 322 321 320 319 318 319 317 313 305 304 304 304
310 311 312 311 311 315 308 310 313 311 309 309 312 313 312 314 314 315 315 316 316 314 312 310 308 308 308 308 309 311 311 312 315 316 319 321 320 321 320 319 318 318 316 312 303 302 301 298 295
309 310 312 311 312 312 309 313 314 309 310 312 310 311 311 314 315 315 315 315 314 314 312 310 308 307 307 308 309 310 310 315 317 317 318 318 320 320 319 318 317 315 312 304 299 297 295 294 294
309 312 310 312 296 308 311 310 310 308 308 309 310 311 314 315 315 315 314 314 314 313 312 310 308 307 307 307 309 311 311 315 315 316 316 318 319 318 318 317 316 311 305 298 295 294 294 294 293
310 308 313 309 312 311 313 312 314 314 311 310 309 311 314 314 315 315 314 315 314 313 312 310 308 308 307 307 309 310 312 313 315 315 315 318 318 317 317 315 311 303 298 295 294 293 293 293 292
309 310 310 310 309 312 311 317 308 311 310 310 309 313 312 314 314 314 316 316 315 314 313 311 310 309 307 307 309 310 312 313 314 314 315 315 316 315 313 312 306 298 295 293 293 293 292 292 291
308 310 309 313 311 308 310 318 308 309 309 309 310 312 313 314 314 314 315 314 313 314 315 313 310 309 308 308 308 309 311 313 313 314 315 314 315 313 308 307 299 296 293 293 292 292 292 291 291
Wind_Speed
3 2 1 1 3 4 1 3 1 3 2 3 8 5 5 3 3 2 16 20 18 18 18 17 16 15 14 12 12 11 9 7 8 9 11 12 13 14 14 12 12 11 11 12 12 12 16 13 15
2 3 2 2 4 2 3 2 5 4 4 12 9 7 3 2 5 9 19 17 19 18 18 17 16 15 14 12 10 9 7 5 7 10 11 12 13 14 14 13 12 12 11 11 10 14 15 12 13
4 5 1 4 3 3 4 5 5 5 13 4 4 3 4 3 7 20 15 16 19 21 19 18 16 15 13 12 11 9 7 4 6 8 10 11 12 13 13 12 12 12 11 10 13 14 12 10 12
5 4 5 4 3 3 3 3 7 12 4 4 4 3 3 6 15 14 16 16 18 20 18 17 16 14 13 12 10 9 7 7 4 7 8 8 10 11 11 12 12 11 11 11 13 12 11 10 10
4 2 4 3 3 3 4 3 14 6 3 5 7 3 2 9 12 13 14 17 19 21 18 17 15 14 13 12 11 9 8 8 4 6 7 7 8 9 10 11 10 11 11 11 12 11 11 10 8
2 3 4 1 3 3 3 7 10 6 3 5 4 6 4 10 12 13 16 16 18 20 17 16 15 13 12 12 11 10 9 8 5 6 6 5 6 8 9 9 9 10 11 11 11 11 10 8 7
4 4 4 4 3 3 4 11 8 9 5 5 3 5 3 13 15 16 17 17 19 20 18 14 14 13 11 11 10 10 9 9 7 7 6 4 4 6 8 8 7 8 10 10 11 10 9 8 7
4 6 3 3 4 5 5 12 7 12 8 5 8 4 3 15 18 18 19 19 20 22 22 19 16 13 13 11 10 10 9 9 8 8 8 5 5 6 8 9 9 9 9 10 10 9 9 9 9
4 4 2 5 6 5 7 6 6 7 6 11 12 8 5 13 20 21 21 21 20 22 23 23 20 18 16 16 14 11 9 7 7 8 8 6 3 6 7 9 10 10 10 11 10 9 9 9 9
4 4 8 5 5 3 5 7 9 5 7 9 13 17 11 11 21 23 24 24 24 24 25 23 21 20 19 18 17 16 13 12 11 10 10 7 4 3 5 4 7 9 9 10 10 10 10 9 9
3 5 4 3 5 3 3 4 7 7 4 14 19 20 19 16 21 25 24 24 23 24 25 25 25 23 20 20 20 18 16 17 16 15 12 11 8 7 6 5 4 3 4 7 7 8 7 7 7
1 1 4 1 4 3 3 3 4 15 14 9 12 16 18 22 23 25 27 26 26 26 25 26 26 27 23 21 21 19 19 18 19 18 16 14 12 10 9 9 9 5 3 0 1 2 3 4 5
2 1 3 4 4 5 5 9 8 17 19 20 17 15 17 22 24 26 27 26 26 27 27 26 26 27 27 25 23 23 22 20 19 20 19 17 16 13 13 12 10 9 7 5 3 2 1 2 3
1 2 5 5 5 6 4 3 3 7 13 23 21 21 20 21 23 27 30 29 30 28 28 27 27 27 28 28 27 27 25 24 24 22 22 21 19 16 15 15 15 13 12 10 7 5 3 3 3
1 3 6 5 3 4 4 6 10 27 24 20 18 22 24 24 26 29 29 30 30 29 28 29 28 28 28 28 29 29 27 26 27 25 23 23 22 19 17 18 18 18 15 14 10 7 6 6 4
3 4 3 2 3 2 6 10 9 6 14 24 24 25 25 26 28 29 30 31 31 31 31 29 29 29 29 29 30 31 31 29 28 28 26 24 21 21 20 21 23 20 23 20 14 12 10 9 7
6 3 4 8 7 2 3 8 6 5 8 16 18 21 24 26 28 31 31 32 33 33 32 32 31 30 30 30 31 31 32 33 33 30 30 25 28 27 24 26 23 23 20 20 15 13 12 13 13
6 4 4 5 2 2 4 14 13 22 18 25 24 24 25 27 29 27 30 32 33 34 34 33 33 32 31 30 30 31 31 31 35 34 32 30 29 26 25 29 26 28 22 23 18 14 16 13 18
5 4 4 5 4 4 8 10 17 20 19 28 35 38 38 37 35 32 30 32 35 36 36 36 35 34 33 32 31 31 31 32 34 34 32 32 32 33 30 27 31 31 29 24 18 18 19 23 22
4 3 5 6 3 6 8 13 13 21 20 30 35 40 45 42 38 36 36 34 36 39 39 38 37 35 34 34 33 32 31 31 31 33 32 32 29 34 31 32 35 33 29 27 22 23 26 26 26
5 6 5 8 3 3 5 8 8 8 16 30 40 45 45 46 45 41 37 35 37 39 40 40 39 37 36 35 34 32 30 31 33 33 34 35 30 30 28 29 27 29 32 26 26 27 29 29 30
6 9 5 2 2 5 1 8 5 7 10 8 33 36 38 36 35 33 29 28 32 36 40 42 41 38 37 35 35 34 35 36 37 36 38 37 31 28 33 26 34 32 29 26 26 29 29 26 29
5 6 6 3 3 4 2 1 6 1 7 17 19 28 22 21 18 17 17 17 19 24 32 39 41 40 39 35 34 33 33 33 32 33 34 32 33 31 31 31 26 28 27 27 27 29 28 27 26
7 5 5 4 2 5 9 8 4 5 9 6 12 16 4 3 3 4 3 6 11 17 24 33 39 41 39 36 34 33 33 33 32 35 35 36 35 36 33 30 30 28 27 29 29 30 28 26 24
3 6 2 3 1 8 3 3 7 7 8 8 10 8 5 4 11 12 9 8 10 14 18 26 35 40 39 36 34 33 32 28 30 34 36 37 37 37 33 31 31 30 29 29 30 30 28 26 24
9 8 6 7 4 5 1 8 6 9 19 29 22 20 17 12 9 9 8 7 8 10 15 20 28 37 36 34 33 32 30 30 32 34 37 36 38 36 31 31 32 31 31 32 31 29 28 26 24
7 7 5 2 2 2 5 8 7 10 11 12 10 7 8 8 7 2 2 3 5 7 11 15 22 31 32 32 31 30 29 31 32 34 37 39 38 37 34 33 33 33 34 33 32 31 29 27 25
5 7 3 2 3 5 5 6 7 6 9 7 5 9 7 6 7 7 8 8 6 5 6 12 18 24 26 30 30 29 29 30 30 31 35 39 39 38 36 35 34 35 35 34 32 30 28 26 23
4 5 2 4 4 5 2 8 8 9 8 7 7 13 9 10 8 8 9 7 6 5 4 9 15 19 25 28 28 28 29 31 31 35 36 37 37 41 38 37 38 38 37 35 32 29 26 23 20
1 4 6 5 5 4 2 15 4 5 2 10 10 10 12 10 7 5 4 3 4 5 8 9 15 21 24 27 28 27 28 31 32 34 35 37 38 41 40 39 40 40 39 36 32 29 25 21 19
Wind_Direction
253 244 224 206 61 62 292 240 291 162 177 181 145 170 194 134 162 184 150 162 167 167 163 160 163 162 161 153 148 138 126 113 103 78 70 67 67 64 66 70 76 79 79 85 89 91 83 86 66
200 170 155 109 86 68 260 247 208 209 156 133 128 130 146 162 146 149 151 162 171 172 169 166 163 166 164 160 154 142 138 114 110 90 81 78 72 70 71 74 79 80 79 81 88 93 88 86 75
167 158 179 89 103 183 213 213 179 148 142 147 133 169 168 172 154 152 163 165 171 174 175 172 171 173 172 168 164 155 147 139 114 92 85 82 77 73 72 74 78 83 86 89 96 100 104 91 82
165 141 63 83 229 238 216 213 166 146 209 185 179 143 178 158 152 165 169 172 174 174 177 178 179 180 180 177 172 166 161 155 116 110 99 91 77 71 72 78 79 81 87 94 103 109 113 107 90
174 110 63 86 268 258 256 220 170 162 178 178 174 196 199 176 171 172 171 174 175 174 177 181 184 186 185 185 181 178 175 173 153 127 115 102 86 75 72 73 81 90 92 95 100 106 107 104 98
157 88 64 221 255 257 253 186 172 188 184 172 192 160 192 186 181 177 170 170 174 178 176 182 186 189 192 191 192 190 185 186 167 154 139 115 89 75 71 75 85 91 96 99 103 105 110 115 101
130 86 197 166 244 304 211 174 180 190 195 221 211 158 209 187 179 176 173 171 172 174 186 188 189 189 193 197 198 195 192 194 185 175 167 144 95 76 75 81 87 94 98 100 102 105 108 104 98
128 92 132 226 200 248 193 171 202 195 220 223 198 211 219 191 182 179 178 177 178 183 184 189 204 203 193 209 222 207 207 207 200 189 185 173 127 96 82 85 84 87 91 92 94 95 96 96 92
127 69 200 224 155 240 170 186 190 195 197 194 203 214 207 188 190 188 187 188 187 187 190 191 199 207 200 209 217 220 221 215 213 206 197 178 134 96 82 86 82 86 89 91 93 94 91 86 87
102 121 218 206 193 223 200 195 187 180 200 221 227 227 220 203 201 202 201 198 195 194 196 197 197 207 209 213 214 219 221 219 218 221 221 211 196 163 146 106 83 82 77 79 81 84 85 86 89
147 185 200 230 224 226 202 215 193 195 217 219 227 233 227 223 211 212 214 213 210 202 203 204 204 208 206 214 219 219 219 217 213 222 218 224 216 206 193 192 162 113 65 54 70 81 94 102 99
155 211 188 242 211 190 197 213 212 220 229 241 248 244 236 233 225 221 219 217 212 212 211 212 214 219 220 214 219 220 222 224 226 223 218 217 214 218 213 214 192 197 163 32 27 33 53 112 104
149 237 231 257 241 236 248 241 241 251 248 250 253 254 242 236 234 228 224 220 219 219 219 219 221 224 229 227 219 221 220 225 230 226 224 222 222 221 221 218 210 197 188 170 267 242 275 172 125
157 256 274 268 243 241 231 261 248 252 250 247 248 251 251 245 239 230 225 223 224 224 225 226 228 230 231 233 229 219 223 226 230 233 229 226 224 222 233 224 216 211 198 196 196 206 201 197 133
77 328 323 250 242 240 225 281 236 254 255 259 257 251 249 249 240 237 235 233 232 232 231 233 235 237 236 234 231 228 225 221 227 233 233 228 229 225 231 234 223 213 206 208 200 205 211 218 201
52 49 350 298 164 254 168 272 271 264 253 255 258 254 252 249 249 244 238 236 234 235 236 237 238 240 239 237 234 232 228 223 221 226 235 236 233 233 231 237 228 223 218 203 205 208 216 216 199
7 229 209 311 205 126 168 271 264 277 274 270 264 260 258 256 250 248 241 239 236 236 237 238 240 241 241 239 237 234 232 228 223 225 229 231 235 236 229 235 228 221 222 200 219 204 217 217 194
200 212 239 242 201 176 214 262 267 261 271 274 272 269 264 262 259 255 248 243 239 236 236 237 239 243 242 237 235 233 232 229 222 221 228 232 233 232 242 238 229 221 216 194 204 224 201 215 187
137 182 231 251 248 193 233 247 267 269 263 262 266 266 262 261 264 261 253 245 242 239 238 237 238 238 238 235 232 231 229 225 224 222 225 230 231 236 235 229 230 216 211 225 223 218 221 191 189
159 178 249 275 249 187 273 255 254 262 253 253 258 262 264 265 263 258 253 249 243 241 240 239 239 238 238 237 237 235 231 226 228 220 223 229 231 226 237 218 241 214 214 214 218 220 199 196 191
211 192 214 229 327 247 311 276 241 279 252 260 261 262 263 263 266 265 261 256 250 243 241 240 240 238 237 236 234 231 227 226 220 226 220 223 229 230 234 225 229 227 208 218 237 220 213 206 195
238 206 187 197 76 252 203 287 263 250 253 254 262 262 263 268 270 272 271 263 256 251 242 239 238 238 237 236 232 231 232 230 228 220 219 226 231 226 237 236 224 217 210 239 229 212 216 218 202
232 134 167 160 186 343 204 219 267 34 258 256 265 270 285 285 277 271 270 266 259 249 245 241 238 237 236 235 232 231 232 231 233 230 225 220 221 220 213 219 220 232 228 223 215 210 207 208 209
141 84 56 52 90 271 198 194 226 189 214 264 265 282 331 34 348 306 279 255 248 242 238 238 236 236 236 232 231 231 236 230 223 223 218 214 213 216 216 222 227 224 218 212 208 203 201 205 211
146 111 294 316 357 244 17 240 259 270 237 229 248 272 285 333 308 296 284 270 259 254 244 236 232 233 233 229 228 229 233 229 227 228 219 219 223 216 216 219 220 212 211 208 201 200 202 206 208
197 165 174 213 215 275 26 241 241 234 254 254 268 264 283 302 294 296 293 280 265 257 250 243 234 231 231 230 229 229 231 226 223 227 225 227 222 223 219 219 217 213 209 203 201 202 203 204 205
189 203 192 52 89 1 226 285 285 270 276 269 260 265 263 276 298 293 293 324 305 276 260 251 240 233 232 231 230 229 227 222 226 234 231 225 225 220 215 215 217 208 204 201 201 202 202 202 203
168 168 86 326 203 253 262 271 229 248 248 256 222 236 233 147 122 99 84 64 41 358 279 250 243 237 233 232 232 231 228 225 225 228 226 228 222 219 214 214 211 203 200 201 201 200 200 201 199
151 205 170 138 157 186 293 261 215 223 210 191 191 163 160 141 140 125 111 96 90 39 313 266 247 234 228 234 234 232 229 227 228 231 237 232 224 222 213 213 208 203 200 201 201 201 201 200 199
344 237 162 146 217 242 168 264 167 214 145 165 169 185 166 152 146 133 131 159 145 57 358 289 257 242 234 235 235 232 228 225 228 230 237 230 232 223 213 210 206 205 202 201 202 203 201 201 200